Lexington Weather

Lexington, Massachusetts, USA

67°F
9/23/2021 4:40am 
  • Lexington Conditions: Overcast
  • Temperature: 67.1°F / 19.5°CWarmer 0.7°F than last hour.
  • Dew Point: 66.2°FIncreased 1.1°Fsince last hour.
  • Relative Humidity: 97%Increased 1.0% since last hour.
  • Wind: Calm, 10-min avg: Calm, gust: 3 mph
  • Barometer: 30.03 in Steady
  • Visibility: 10 miles
  • Rain Today: 0.00 in
  •   

Regional Weather Roundup
for Boston / Norton, MA

        
000
ASUS41 KBOX 182304
RWRBOX

REGIONAL WEATHER ROUNDUP
NATIONAL WEATHER SERVICE BOSTON/NORTON MA
700 PM EDT SAT SEP 18 2021

NOTE:  "FAIR" INDICATES FEW OR NO CLOUDS BELOW 12,000 FEET WITH NO 
SIGNIFICANT WEATHER AND/OR OBSTRUCTIONS TO VISIBILITY.

MAZALL-190000-
EASTERN MASSACHUSETTS
  
CITY           SKY/WX    TMP DP  RH WIND       PRES   REMARKS
BOSTON         PTCLDY    69  64  84 E3        29.97R                  
BEVERLY        CLEAR     67  65  93 S5        29.96R                  
LAWRENCE       CLEAR     75  67  76 SE5       29.98R                  
BEDFORD        CLEAR     71  68  90 SW3       29.95R                  
BLUE HILL      NOT AVBL                                               
NORWOOD        CLEAR     72  66  81 CALM      29.96R                  
MARSHFIELD     CLEAR     66  64  94 CALM      29.97R                  
PLYMOUTH       CLEAR     67  65  93 CALM      29.98R                  
TAUNTON        CLEAR     67  65  93 CALM      29.97R                  
NEW BEDFORD    CLEAR     69  67  93 CALM      29.96R                  
$$

MAZALL-190000-
CAPE COD AND THE ISLANDS
  
CITY           SKY/WX    TMP DP  RH WIND       PRES   REMARKS
FALMOUTH       NOT AVBL                                               
HYANNIS        FOG       65  65 100 NW8       29.96R VSB 1/2          
CHATHAM        CLOUDY    67  65  93 VRB3      29.97R                  
PROVINCETOWN   FOG       64  64 100 N5        29.98R VSB 1/4          
NANTUCKET      CLOUDY    69  66  90 N14       29.96R                  
MARTHAS VNYRD  CLEAR     67  66  97 N3        29.97R                  
$$
 
MAZALL-190000-
CENTRAL AND WESTERN MASSACHUSETTS
  
CITY           SKY/WX    TMP DP  RH WIND       PRES   REMARKS
WORCESTER      CLEAR     72  66  81 W6        30.00R                  
FITCHBURG      CLEAR     74  69  85 CALM      29.97S                  
ORANGE         MOCLDY    74  69  85 CALM      29.99R                  
SPRINGFIELD    PTCLDY    73  68  83 CALM      29.96S                  
WESTFIELD      MOCLDY    75  71  87 CALM      29.98R                  
NORTH ADAMS    PTCLDY    71  65  81 W7        30.01R                  
PITTSFIELD     PTCLDY    72  64  76 NW7       30.03R                  
$$
 
RIZALL-190000-
RHODE ISLAND
  
CITY           SKY/WX    TMP DP  RH WIND       PRES   REMARKS
PROVIDENCE     PTCLDY    72  67  84 E3        29.97R                  
NEWPORT        CLEAR     69  65  86 CALM      29.97R                  
BLOCK ISLAND   CLEAR     69  65  86 W5        29.98                   
SMITHFIELD     CLEAR     69  67  93 SE3       29.99R                  
WESTERLY       CLEAR     69  68  96 S6        29.97S                  
$$
 
CTZALL-190000-
CONNECTICUT
  
CITY           SKY/WX    TMP DP  RH WIND       PRES   REMARKS
BRADLEY INTL   PTCLDY    75  68  78 W6        29.97S                  
HARTFORD       CLEAR     77  67  71 CALM      29.97R                  
BRIDGEPORT     CLEAR     80  66  62 NW5       29.97R                  
DANBURY        CLEAR     75  68  78 CALM      30.00R                  
GROTON         CLEAR     72  69  90 SW9       29.96S                  
NEW HAVEN      PTCLDY    77  70  79 CALM      29.98R                  
CHESTER        FAIR      73  70  88 CALM      29.99R                  
MERIDEN        CLEAR     73  69  87 CALM      29.98R                  
WILLIMANTIC    CLEAR     74  67  78 CALM      29.97S                  
OXFORD         PTCLDY    73  66  78 NW3       30.02R                  
$$

MEZ002-015-021-024-NHZ003-005-008-011-012-014-VTZ005-008-190000-
NORTHERN NEW ENGLAND
  
CITY           SKY/WX    TMP DP  RH WIND       PRES   REMARKS
PORTLAND ME    TSTM      67  66  97 SW6       29.99R FOG              
BANGOR ME      CLOUDY    69  67  93 W3        29.99R                  
CONCORD NH     CLEAR     73  67  81 CALM      29.97R                  
MANCHESTER NH  MOCLDY    78  66  66 NE3       29.95R                  
NASHUA NH      MOCLDY    72  72 100 CALM      29.97R                  
PORTSMOUTH NH  PTCLDY    67  64  90 CALM      29.97R                  
JAFFREY NH     PTCLDY    72  71  97 CALM      30.01R                  
KEENE NH       CLOUDY    74  68  81 N6        29.99R                  
BURLINGTON VT  PTCLDY    67  52  58 N3        30.08R                  
MT. WASHINGTON FOG       48  48 100 NW37G47     N/A  VSB 0            
$$

NYZ052-076-190000-
EASTERN NEW YORK
  
CITY           SKY/WX    TMP DP  RH WIND       PRES   REMARKS
ALBANY         MOCLDY    70  67  90 NW8       30.02R                  
NEW YORK CITY  PTCLDY    83  62  49 NW7       29.97R                  
$$
 
ANZALL-190000-
MARINE OBSERVATIONS
  
STATION/POSITION TIME  TEMP    WIND        PRES    VSBY  WAVE
                       AIR SEA DIR/SP/G                  HT/PER
                 (UTC) (F)     (DEG/KT/KT) (MB)    (MI)  (FT/S)
BOSTON BUOY      2240      68  100/  2/  4 1015.2R
BUZZARDS BAY     2200           20/  5/  5 1015.6R
NANTUCKET SOUND  2240   68 72  360/ 10/ 14 1014.3R
MASS BAY-STELLWA 2204   67      90/  2/  4 1014.1R  1 7/8  4/ 8
ISLE OF SHOALS   2200   65     150/  4/  5 1014.0R
S OF BLOCK IS    2226      71                N/A           5/ 9
$$

......................KEY.........................
  SKY/WX - SKY CONDITION/PRESENT WEATHER
  TMP    - TEMPERATURE IN FAHRENHEIT
  DWPT   - DEWPOINT IN FAHRENHEIT
  RH     - RELATIVE HUMIDITY IN PERCENT
  WIND   - DIRECTION AND SPEED IN MPH
  PRES   - MEAN SEA LEVEL PRESSURE IN INCHES OF HG
  WCI    - WIND CHILL INDEX
  VSB    - VISIBILITY IN MILES
  HX     - HEAT INDEX
  TC     - TEMPERATURE IN CELSIUS
  VRB    - VARIABLE WIND DIRECTION
  N/A    - NOT AVAILABLE
  
      

Other recent Regional Weather Roundups

Thu Sep 23, 4:04am

Thu Sep 23, 3:04am

Thu Sep 23, 2:04am

Thu Sep 23, 1:04am

Thu Sep 23, 12:04am

Wed Sep 22, 11:04pm

Wed Sep 22, 10:04pm

Wed Sep 22, 9:04pm

Wed Sep 22, 8:04pm

Wed Sep 22, 7:04pm

Wed Sep 22, 6:04pm

Wed Sep 22, 5:04pm

Wed Sep 22, 4:04pm

Wed Sep 22, 3:04pm

Wed Sep 22, 2:04pm

Wed Sep 22, 1:04pm

Wed Sep 22, 12:05pm

Wed Sep 22, 11:04am

Wed Sep 22, 10:04am

Wed Sep 22, 9:04am

Wed Sep 22, 8:04am

Wed Sep 22, 7:04am

Wed Sep 22, 6:04am

Wed Sep 22, 5:04am

Wed Sep 22, 4:04am

Wed Sep 22, 3:04am

Wed Sep 22, 2:04am

Wed Sep 22, 1:04am

Wed Sep 22, 12:04am

Tue Sep 21, 11:04pm

Tue Sep 21, 10:04pm

Tue Sep 21, 9:04pm

Tue Sep 21, 8:04pm

Tue Sep 21, 7:04pm

Tue Sep 21, 6:04pm

Tue Sep 21, 5:04pm

Tue Sep 21, 4:04pm

Tue Sep 21, 3:04pm

Tue Sep 21, 2:04pm

Tue Sep 21, 1:04pm

Tue Sep 21, 12:04pm

Tue Sep 21, 11:04am

Tue Sep 21, 10:04am

Tue Sep 21, 9:04am

Tue Sep 21, 8:04am

Tue Sep 21, 7:04am

Tue Sep 21, 6:04am

Tue Sep 21, 5:04am

Tue Sep 21, 4:04am

Tue Sep 21, 3:04am

Tue Sep 21, 2:04am

Tue Sep 21, 1:04am

Tue Sep 21, 12:04am

Mon Sep 20, 11:04pm

Mon Sep 20, 10:04pm

Mon Sep 20, 9:04pm

Mon Sep 20, 8:04pm

Mon Sep 20, 7:04pm

Mon Sep 20, 6:04pm

Mon Sep 20, 5:04pm

Mon Sep 20, 4:04pm

Mon Sep 20, 3:04pm

Mon Sep 20, 2:04pm

Mon Sep 20, 1:04pm

Mon Sep 20, 12:04pm

Mon Sep 20, 11:04am

Mon Sep 20, 10:04am

Mon Sep 20, 9:04am

Mon Sep 20, 7:04am

Mon Sep 20, 6:04am

Mon Sep 20, 5:04am

Mon Sep 20, 4:04am

Mon Sep 20, 3:04am

Mon Sep 20, 2:04am

Mon Sep 20, 1:04am

Mon Sep 20, 12:04am

Sun Sep 19, 11:04pm

Sun Sep 19, 10:04pm

Sun Sep 19, 9:04pm

Sun Sep 19, 8:04pm

Sun Sep 19, 7:04pm

Sun Sep 19, 6:04pm

Sun Sep 19, 5:04pm

Sun Sep 19, 4:04pm

Sun Sep 19, 3:04pm

Sun Sep 19, 2:05pm

Sun Sep 19, 1:04pm

Sun Sep 19, 12:04pm

Sun Sep 19, 11:04am

Sun Sep 19, 10:05am

Sun Sep 19, 9:04am

Sun Sep 19, 8:04am

Sun Sep 19, 7:04am

Sun Sep 19, 6:04am

Sun Sep 19, 5:04am

Sun Sep 19, 4:04am

Sun Sep 19, 3:04am

Sun Sep 19, 2:04am

Sun Sep 19, 1:04am

Sun Sep 19, 12:04am

Sat Sep 18, 11:05pm

Sat Sep 18, 10:04pm

Sat Sep 18, 9:04pm

Sat Sep 18, 8:04pm

Sat Sep 18, 6:04pm

Sat Sep 18, 5:04pm

Sat Sep 18, 4:04pm

Sat Sep 18, 3:04pm

Sat Sep 18, 2:04pm

Sat Sep 18, 1:04pm

Sat Sep 18, 12:04pm

Sat Sep 18, 11:04am

Sat Sep 18, 10:04am

Sat Sep 18, 9:04am

Sat Sep 18, 8:04am

Sat Sep 18, 7:04am

Sat Sep 18, 6:04am

Sat Sep 18, 5:04am

Sat Sep 18, 4:04am

Sat Sep 18, 3:04am

Sat Sep 18, 2:04am

Sat Sep 18, 1:04am

Sat Sep 18, 12:04am

Fri Sep 17, 11:04pm

Fri Sep 17, 10:04pm

Fri Sep 17, 9:04pm

Fri Sep 17, 8:04pm

Fri Sep 17, 7:04pm

Fri Sep 17, 6:04pm

Fri Sep 17, 5:04pm

Fri Sep 17, 4:04pm

Fri Sep 17, 3:04pm

Fri Sep 17, 2:04pm

Fri Sep 17, 1:04pm

Fri Sep 17, 12:05pm

Fri Sep 17, 11:04am

Fri Sep 17, 10:04am

Fri Sep 17, 9:04am

Fri Sep 17, 8:04am

Fri Sep 17, 7:04am

Fri Sep 17, 6:04am

Fri Sep 17, 5:04am

Fri Sep 17, 4:04am

Fri Sep 17, 3:04am

Fri Sep 17, 2:04am

Fri Sep 17, 1:04am

Fri Sep 17, 12:04am

Thu Sep 16, 11:04pm

Thu Sep 16, 10:04pm

Thu Sep 16, 9:04pm

Thu Sep 16, 8:04pm

Thu Sep 16, 7:04pm

Thu Sep 16, 6:04pm

Thu Sep 16, 5:04pm

Thu Sep 16, 4:04pm

Thu Sep 16, 3:04pm

Thu Sep 16, 2:04pm

Thu Sep 16, 1:05pm

Thu Sep 16, 12:04pm

Thu Sep 16, 11:05am

Thu Sep 16, 10:05am

Thu Sep 16, 9:04am

Thu Sep 16, 8:04am

Thu Sep 16, 7:04am

Thu Sep 16, 6:04am

Thu Sep 16, 5:04am

Meta data:

ID: 56d2acca-365e-42f2-8a37-cc5c024f4595
Link: https://api.weather.gov/products/56d2acca-365e-42f2-8a37-cc5c024f4595